| time (UTC) | temp C | wind direction | speed KPH | gust KPH | rain 1hr cm | rain 24hr cm | rain mn cm | humidity % | barometer mb |
| 20260506070604 | 32 | 181 | 1.6 | 8.0 | 0.00 | 0.00 | 0.00 | 71 | 1010.0 |
| 20260506070304 | 32 | 228 | 1.6 | 8.0 | 0.00 | 0.00 | 0.00 | 71 | 1010.0 |
| 20260506062425 | 32 | 79 | 1.6 | 4.8 | 0.00 | 0.00 | 0.00 | 72 | 1010.0 |
| 20260506062104 | 32 | 100 | 1.6 | 4.8 | 0.00 | 0.00 | 0.00 | 72 | 1010.0 |
| 20260506061804 | 32 | 286 | 1.6 | 4.8 | 0.00 | 0.00 | 0.00 | 71 | 1010.0 |
| 20260506061504 | 32 | 317 | 1.6 | 6.4 | 0.00 | 0.00 | 0.00 | 71 | 1010.0 |
| 20260506061204 | 32 | 30 | 1.6 | 6.4 | 0.00 | 0.00 | 0.00 | 71 | 1010.0 |
| 20260506060904 | 32 | 323 | 1.6 | 6.4 | 0.00 | 0.00 | 0.00 | 71 | 1010.0 |
| 20260506060604 | 32 | 332 | 1.6 | 6.4 | 0.00 | 0.00 | 0.00 | 71 | 1010.0 |
| 20260506060304 | 32 | 334 | 1.6 | 6.4 | 0.00 | 0.00 | 0.00 | 71 | 1010.0 |
| 20260506051204 | 31 | 188 | 0.0 | 3.2 | 0.00 | 0.00 | 0.00 | 72 | 1010.0 |
| 20260506050904 | 31 | 172 | 1.6 | 4.8 | 0.00 | 0.00 | 0.00 | 72 | 1010.0 |
| 20260506050625 | 31 | 170 | 1.6 | 4.8 | 0.00 | 0.00 | 0.00 | 72 | 1010.0 |
| 20260506050304 | 31 | 158 | 1.6 | 4.8 | 0.00 | 0.00 | 0.00 | 72 | 1010.0 |
| 20260506045104 | 31 | 204 | 0.0 | 3.2 | 0.00 | 0.00 | 0.00 | 71 | 1010.0 |
| 20260506044804 | 31 | 178 | 0.0 | 3.2 | 0.00 | 0.00 | 0.00 | 71 | 1010.0 |
| 20260506044504 | 31 | 167 | 0.0 | 3.2 | 0.00 | 0.00 | 0.00 | 71 | 1010.0 |
| 20260506044225 | 31 | 188 | 1.6 | 3.2 | 0.00 | 0.00 | 0.00 | 70 | 1010.0 |
| 20260506043904 | 31 | 213 | 0.0 | 3.2 | 0.00 | 0.00 | 0.00 | 71 | 1010.0 |
| 20260506043625 | 31 | 212 | 0.0 | 3.2 | 0.00 | 0.00 | 0.00 | 71 | 1010.0 |
| 20260506043304 | 31 | 191 | 0.0 | 3.2 | 0.00 | 0.00 | 0.00 | 71 | 1010.0 |
| 20260506043004 | 31 | 177 | 0.0 | 3.2 | 0.00 | 0.00 | 0.00 | 71 | 1010.0 |
| 20260506042704 | 31 | 188 | 1.6 | 3.2 | 0.00 | 0.00 | 0.00 | 72 | 1010.0 |
| 20260506042404 | 31 | 191 | 0.0 | 3.2 | 0.00 | 0.00 | 0.00 | 72 | 1010.0 |
| 20260506042125 | 31 | 204 | 0.0 | 3.2 | 0.00 | 0.00 | 0.00 | 72 | 1010.0 |
| 20260506041804 | 31 | 201 | 0.0 | 3.2 | 0.00 | 0.00 | 0.00 | 72 | 1010.0 |
| 20260506041504 | 31 | 179 | 0.0 | 3.2 | 0.00 | 0.00 | 0.00 | 72 | 1010.0 |
| 20260506041204 | 31 | 168 | 0.0 | 3.2 | 0.00 | 0.00 | 0.00 | 73 | 1010.0 |
| 20260506040904 | 31 | 183 | 0.0 | 3.2 | 0.00 | 0.00 | 0.00 | 72 | 1010.0 |
| 20260506040604 | 31 | 213 | 0.0 | 3.2 | 0.00 | 0.00 | 0.00 | 73 | 1010.0 |
| 20260506040304 | 31 | 220 | 0.0 | 3.2 | 0.00 | 0.00 | 0.00 | 73 | 1010.0 |
| 20260506040004 | 30 | 228 | 0.0 | 3.2 | 0.00 | 0.00 | 0.00 | 74 | 1010.0 |
| 20260506035725 | 30 | 245 | 1.6 | 3.2 | 0.00 | 0.00 | 0.00 | 74 | 1010.0 |
| 20260506035404 | 30 | 277 | 1.6 | 3.2 | 0.00 | 0.00 | 0.00 | 74 | 1010.0 |
| 20260506035104 | 30 | 273 | 1.6 | 3.2 | 0.00 | 0.00 | 0.00 | 74 | 1010.0 |
| 20260506034804 | 30 | 270 | 0.0 | 3.2 | 0.00 | 0.00 | 0.00 | 74 | 1010.0 |
| 20260506034504 | 30 | 170 | 0.0 | 3.2 | 0.00 | 0.00 | 0.00 | 75 | 1010.0 |
| 20260506034204 | 30 | 173 | 0.0 | 3.2 | 0.00 | 0.00 | 0.00 | 75 | 1010.0 |
| 20260506033904 | 30 | 207 | 0.0 | 3.2 | 0.00 | 0.00 | 0.00 | 76 | 1010.0 |
| 20260506033604 | 30 | 213 | 0.0 | 3.2 | 0.00 | 0.00 | 0.00 | 76 | 1010.0 |
| 20260506033304 | 30 | 213 | 0.0 | 6.4 | 0.00 | 0.00 | 0.00 | 76 | 1010.0 |
| 20260506033004 | 30 | 204 | 1.6 | 6.4 | 0.00 | 0.00 | 0.00 | 76 | 1010.0 |
| 20260506032704 | 30 | 197 | 1.6 | 6.4 | 0.00 | 0.00 | 0.00 | 77 | 1010.0 |
| 20260506032404 | 30 | 198 | 1.6 | 6.4 | 0.00 | 0.00 | 0.00 | 76 | 1010.0 |
| 20260506032104 | 30 | 191 | 1.6 | 4.8 | 0.00 | 0.00 | 0.00 | 77 | 1010.0 |
| 20260506031804 | 30 | 194 | 1.6 | 4.8 | 0.00 | 0.00 | 0.00 | 78 | 1010.0 |
| 20260506031504 | 30 | 221 | 1.6 | 6.4 | 0.00 | 0.00 | 0.00 | 78 | 1010.0 |
| 20260506031204 | 30 | 271 | 1.6 | 6.4 | 0.00 | 0.00 | 0.00 | 78 | 1010.0 |
| 20260506030925 | 30 | 218 | 1.6 | 6.4 | 0.00 | 0.00 | 0.00 | 78 | 1010.0 |
| 20260506030604 | 30 | 215 | 3.2 | 6.4 | 0.00 | 0.00 | 0.00 | 78 | 1010.0 |
| 20260506030304 | 30 | 185 | 3.2 | 6.4 | 0.00 | 0.00 | 0.00 | 78 | 1010.0 |
| 20260506030025 | 30 | 203 | 1.6 | 6.4 | 0.00 | 0.00 | 0.00 | 78 | 1010.0 |
| 20260506025704 | 30 | 216 | 1.6 | 6.4 | 0.00 | 0.00 | 0.00 | 78 | 1010.0 |
| 20260506025404 | 30 | 230 | 1.6 | 6.4 | 0.00 | 0.00 | 0.00 | 79 | 1010.0 |
| 20260506025104 | 30 | 227 | 1.6 | 6.4 | 0.00 | 0.00 | 0.00 | 79 | 1010.0 |
| 20260506024804 | 30 | 198 | 1.6 | 6.4 | 0.00 | 0.00 | 0.00 | 79 | 1010.0 |
| 20260506024504 | 30 | 188 | 1.6 | 6.4 | 0.00 | 0.00 | 0.00 | 79 | 1010.0 |
| 20260506024204 | 30 | 178 | 1.6 | 6.4 | 0.00 | 0.00 | 0.00 | 79 | 1010.0 |
| 20260506023904 | 30 | 191 | 0.0 | 3.2 | 0.00 | 0.00 | 0.00 | 79 | 1010.0 |
| 20260506023604 | 30 | 156 | 0.0 | 3.2 | 0.00 | 0.00 | 0.00 | 79 | 1010.0 |
| 20260506023325 | 30 | 182 | 1.6 | 3.2 | 0.00 | 0.00 | 0.00 | 79 | 1010.0 |
| 20260506023004 | 30 | 199 | 1.6 | 3.2 | 0.00 | 0.00 | 0.00 | 79 | 1010.0 |
| 20260506022704 | 29 | 211 | 1.6 | 4.8 | 0.00 | 0.00 | 0.00 | 79 | 1010.0 |
| 20260506022404 | 29 | 206 | 1.6 | 4.8 | 0.00 | 0.00 | 0.00 | 79 | 1010.0 |
| 20260506022125 | 29 | 200 | 1.6 | 4.8 | 0.00 | 0.00 | 0.00 | 79 | 1010.0 |
| 20260506021804 | 29 | 177 | 1.6 | 4.8 | 0.00 | 0.00 | 0.00 | 79 | 1010.0 |
| 20260506021504 | 29 | 177 | 1.6 | 4.8 | 0.00 | 0.00 | 0.00 | 79 | 1010.0 |
| 20260506021204 | 29 | 179 | 1.6 | 4.8 | 0.00 | 0.00 | 0.00 | 79 | 1010.0 |
| 20260506020925 | 29 | 181 | 1.6 | 4.8 | 0.00 | 0.00 | 0.00 | 79 | 1010.0 |
| 20260506020604 | 29 | 178 | 1.6 | 4.8 | 0.00 | 0.00 | 0.00 | 79 | 1010.0 |
| 20260506020304 | 29 | 169 | 1.6 | 4.8 | 0.00 | 0.00 | 0.00 | 79 | 1010.0 |
| 20260506020025 | 29 | 158 | 1.6 | 3.2 | 0.00 | 0.00 | 0.00 | 79 | 1010.0 |
| 20260506015704 | 29 | 142 | 1.6 | 3.2 | 0.00 | 0.00 | 0.00 | 79 | 1010.0 |
| 20260506015425 | 29 | 140 | 1.6 | 4.8 | 0.00 | 0.00 | 0.00 | 79 | 1010.0 |
| 20260506015104 | 29 | 151 | 1.6 | 4.8 | 0.00 | 0.00 | 0.00 | 79 | 1010.0 |
| 20260506014825 | 29 | 165 | 1.6 | 4.8 | 0.00 | 0.00 | 0.00 | 79 | 1010.0 |
| 20260506014504 | 29 | 170 | 3.2 | 4.8 | 0.00 | 0.00 | 0.00 | 79 | 1010.0 |
| 20260506014225 | 29 | 171 | 3.2 | 4.8 | 0.00 | 0.00 | 0.00 | 79 | 1010.0 |
| 20260506013904 | 29 | 180 | 1.6 | 4.8 | 0.00 | 0.00 | 0.00 | 79 | 1010.0 |
| 20260506013604 | 29 | 182 | 1.6 | 4.8 | 0.00 | 0.00 | 0.00 | 79 | 1010.0 |
| 20260506013325 | 29 | 173 | 1.6 | 4.8 | 0.00 | 0.00 | 0.00 | 79 | 1010.0 |
| 20260506013004 | 29 | 154 | 1.6 | 4.8 | 0.00 | 0.00 | 0.00 | 79 | 1010.0 |
| 20260506012704 | 29 | 130 | 0.0 | 3.2 | 0.00 | 0.00 | 0.00 | 79 | 1010.0 |
| 20260506012404 | 29 | 116 | 0.0 | 3.2 | 0.00 | 0.00 | 0.00 | 79 | 1010.0 |
| 20260506012104 | 29 | 122 | 0.0 | 3.2 | 0.00 | 0.00 | 0.00 | 79 | 1010.0 |
| 20260506011804 | 29 | 118 | 0.0 | 3.2 | 0.00 | 0.00 | 0.00 | 79 | 1010.0 |
| 20260506011504 | 29 | 112 | 0.0 | 3.2 | 0.00 | 0.00 | 0.00 | 79 | 1010.0 |
| 20260506011204 | 29 | 99 | 1.6 | 3.2 | 0.00 | 0.00 | 0.00 | 79 | 1010.0 |
| 20260506010904 | 29 | 90 | 1.6 | 3.2 | 0.00 | 0.00 | 0.00 | 80 | 1010.0 |
| 20260506010625 | 29 | 98 | 1.6 | 3.2 | 0.00 | 0.00 | 0.00 | 79 | 1010.0 |
| 20260506010304 | 28 | 105 | 1.6 | 3.2 | 0.00 | 0.00 | 0.00 | 80 | 1010.0 |
| 20260506010004 | 28 | 111 | 1.6 | 4.8 | 0.00 | 0.00 | 0.00 | 80 | 1010.0 |
| 20260506005725 | 29 | 122 | 1.6 | 4.8 | 0.00 | 0.00 | 0.00 | 79 | 1010.0 |
| 20260506005404 | 28 | 124 | 1.6 | 4.8 | 0.00 | 0.00 | 0.00 | 80 | 1010.0 |
| 20260506005104 | 28 | 132 | 1.6 | 4.8 | 0.00 | 0.00 | 0.00 | 80 | 1010.0 |
| 20260506004804 | 28 | 127 | 1.6 | 3.2 | 0.00 | 0.00 | 0.00 | 79 | 1010.0 |
| 20260506004504 | 28 | 129 | 1.6 | 3.2 | 0.00 | 0.00 | 0.00 | 79 | 1010.0 |
| 20260506004204 | 28 | 125 | 1.6 | 3.2 | 0.00 | 0.00 | 0.00 | 79 | 1010.0 |
| 20260506003904 | 28 | 128 | 1.6 | 3.2 | 0.00 | 0.00 | 0.00 | 79 | 1010.0 |
| 20260506003604 | 29 | 114 | 1.6 | 3.2 | 0.00 | 0.00 | 0.00 | 79 | 1010.0 |
| 20260506003304 | 29 | 107 | 1.6 | 3.2 | 0.00 | 0.00 | 0.00 | 79 | 1010.0 |
| 20260506003004 | 29 | 102 | 1.6 | 3.2 | 0.00 | 0.00 | 0.00 | 79 | 1010.0 |
| 20260506002704 | 29 | 109 | 1.6 | 4.8 | 0.00 | 0.00 | 0.00 | 79 | 1010.0 |
| 20260506002404 | 29 | 116 | 1.6 | 4.8 | 0.00 | 0.00 | 0.00 | 78 | 1010.0 |
| 20260506002125 | 29 | 129 | 1.6 | 4.8 | 0.00 | 0.00 | 0.00 | 78 | 1010.0 |
| 20260506001825 | 29 | 134 | 1.6 | 4.8 | 0.00 | 0.00 | 0.00 | 78 | 1010.0 |
| 20260506001504 | 29 | 138 | 1.6 | 4.8 | 0.00 | 0.00 | 0.00 | 78 | 1010.0 |
| 20260506001204 | 29 | 148 | 1.6 | 4.8 | 0.00 | 0.00 | 0.00 | 78 | 1010.0 |
| 20260506000904 | 29 | 151 | 0.0 | 3.2 | 0.00 | 0.00 | 0.00 | 78 | 1010.0 |
| 20260506000604 | 29 | 150 | 1.6 | 3.2 | 0.00 | 0.00 | 0.00 | 78 | 1010.0 |
| 20260506000304 | 29 | 154 | 1.6 | 4.8 | 0.00 | 0.00 | 0.00 | 78 | 1010.0 |
| 20260506000004 | 29 | 142 | 1.6 | 4.8 | 0.00 | 0.00 | 0.00 | 78 | 1010.0 |
| 20260505235704 | 30 | 134 | 1.6 | 4.8 | 0.00 | 0.00 | 0.00 | 78 | 1010.0 |
| 20260505235404 | 30 | 125 | 1.6 | 4.8 | 0.00 | 0.00 | 0.00 | 78 | 1010.0 |
| 20260505235104 | 30 | 130 | 1.6 | 4.8 | 0.00 | 0.00 | 0.00 | 78 | 1010.0 |
| 20260505234804 | 30 | 137 | 1.6 | 4.8 | 0.00 | 0.00 | 0.00 | 78 | 1010.0 |
| 20260505234504 | 30 | 137 | 1.6 | 4.8 | 0.00 | 0.00 | 0.00 | 78 | 1010.0 |
| 20260505234204 | 30 | 143 | 1.6 | 4.8 | 0.00 | 0.00 | 0.00 | 78 | 1010.0 |
| 20260505233904 | 30 | 147 | 1.6 | 4.8 | 0.00 | 0.00 | 0.00 | 77 | 1010.0 |
| 20260505233604 | 30 | 144 | 1.6 | 4.8 | 0.00 | 0.00 | 0.00 | 77 | 1010.0 |
| 20260505233304 | 30 | 143 | 1.6 | 4.8 | 0.00 | 0.00 | 0.00 | 78 | 1010.0 |
| 20260505233004 | 30 | 138 | 1.6 | 4.8 | 0.00 | 0.00 | 0.00 | 78 | 1010.0 |
| 20260505232704 | 30 | 135 | 1.6 | 4.8 | 0.00 | 0.00 | 0.00 | 78 | 1010.0 |
| 20260505232425 | 30 | 130 | 1.6 | 4.8 | 0.00 | 0.00 | 0.00 | 78 | 1010.0 |
| 20260505232104 | 30 | 124 | 1.6 | 3.2 | 0.00 | 0.00 | 0.00 | 78 | 1010.0 |
| 20260505231804 | 30 | 119 | 1.6 | 3.2 | 0.00 | 0.00 | 0.00 | 78 | 1010.0 |
| 20260505231504 | 30 | 124 | 1.6 | 3.2 | 0.00 | 0.00 | 0.00 | 78 | 1010.0 |
| 20260505231204 | 30 | 109 | 1.6 | 3.2 | 0.00 | 0.00 | 0.00 | 78 | 1010.0 |
| 20260505230904 | 30 | 97 | 1.6 | 3.2 | 0.00 | 0.00 | 0.00 | 78 | 1010.0 |
| 20260505230604 | 30 | 115 | 1.6 | 3.2 | 0.00 | 0.00 | 0.00 | 78 | 1010.0 |
| 20260505230325 | 30 | 110 | 0.0 | 3.2 | 0.00 | 0.00 | 0.00 | 78 | 1010.0 |
| 20260505230004 | 30 | 145 | 1.6 | 3.2 | 0.00 | 0.00 | 0.00 | 78 | 1010.0 |
| 20260505225704 | 30 | 133 | 1.6 | 3.2 | 0.00 | 0.00 | 0.00 | 78 | 1010.0 |
| 20260505225404 | 30 | 156 | 1.6 | 3.2 | 0.00 | 0.00 | 0.00 | 78 | 1010.0 |
| 20260505225104 | 30 | 153 | 1.6 | 4.8 | 0.00 | 0.00 | 0.00 | 78 | 1010.0 |
| 20260505224804 | 30 | 172 | 1.6 | 4.8 | 0.00 | 0.00 | 0.00 | 78 | 1010.0 |
| 20260505224504 | 30 | 161 | 1.6 | 4.8 | 0.00 | 0.00 | 0.00 | 78 | 1010.0 |
| 20260505224204 | 30 | 148 | 1.6 | 4.8 | 0.00 | 0.00 | 0.00 | 78 | 1010.0 |
| 20260505223925 | 30 | 139 | 1.6 | 4.8 | 0.00 | 0.00 | 0.00 | 78 | 1010.0 |
| 20260505223604 | 30 | 133 | 1.6 | 3.2 | 0.00 | 0.00 | 0.00 | 78 | 1010.0 |
| 20260505223304 | 30 | 79 | 1.6 | 4.8 | 0.00 | 0.00 | 0.00 | 78 | 1010.0 |
| 20260505223025 | 30 | 83 | 1.6 | 4.8 | 0.00 | 0.00 | 0.00 | 78 | 1010.0 |
| 20260505222704 | 30 | 111 | 1.6 | 4.8 | 0.00 | 0.00 | 0.00 | 78 | 1010.0 |
| 20260505222425 | 30 | 137 | 1.6 | 4.8 | 0.00 | 0.00 | 0.00 | 78 | 1010.0 |
| 20260505222104 | 30 | 152 | 1.6 | 4.8 | 0.00 | 0.00 | 0.00 | 78 | 1010.0 |
| 20260505221804 | 30 | 145 | 1.6 | 4.8 | 0.00 | 0.00 | 0.00 | 78 | 1010.0 |
| 20260505221504 | 30 | 145 | 1.6 | 4.8 | 0.00 | 0.00 | 0.00 | 78 | 1010.0 |
| 20260505221204 | 30 | 147 | 0.0 | 4.8 | 0.00 | 0.00 | 0.00 | 78 | 1010.0 |
| 20260505220904 | 30 | 156 | 0.0 | 3.2 | 0.00 | 0.00 | 0.00 | 78 | 1010.0 |
| 20260505220604 | 30 | 143 | 0.0 | 3.2 | 0.00 | 0.00 | 0.00 | 78 | 1010.0 |
| 20260505220304 | 30 | 142 | 1.6 | 3.2 | 0.00 | 0.00 | 0.00 | 78 | 1010.0 |
| 20260505220004 | 30 | 130 | 1.6 | 3.2 | 0.00 | 0.00 | 0.00 | 78 | 1010.0 |
| 20260505215704 | 30 | 128 | 1.6 | 4.8 | 0.00 | 0.00 | 0.00 | 78 | 1010.0 |
| 20260505215404 | 30 | 124 | 1.6 | 4.8 | 0.00 | 0.00 | 0.00 | 78 | 1010.0 |
| 20260505215104 | 30 | 124 | 1.6 | 4.8 | 0.00 | 0.00 | 0.00 | 78 | 1010.0 |
| 20260505214804 | 30 | 133 | 1.6 | 4.8 | 0.00 | 0.00 | 0.00 | 78 | 1010.0 |
| 20260505214504 | 30 | 144 | 1.6 | 3.2 | 0.00 | 0.00 | 0.00 | 78 | 1010.0 |
| 20260505214204 | 30 | 144 | 1.6 | 4.8 | 0.00 | 0.00 | 0.00 | 78 | 1010.0 |
| 20260505213904 | 30 | 140 | 1.6 | 4.8 | 0.00 | 0.00 | 0.00 | 78 | 1010.0 |
| 20260505213604 | 30 | 128 | 1.6 | 4.8 | 0.00 | 0.00 | 0.00 | 78 | 1010.0 |
| 20260505213304 | 30 | 139 | 0.0 | 4.8 | 0.00 | 0.00 | 0.00 | 78 | 1010.0 |
| 20260505213025 | 30 | 116 | 1.6 | 3.2 | 0.00 | 0.00 | 0.00 | 78 | 1010.0 |
| 20260505212704 | 30 | 89 | 1.6 | 4.8 | 0.00 | 0.00 | 0.00 | 78 | 1010.0 |
| 20260505212404 | 30 | 73 | 1.6 | 4.8 | 0.00 | 0.00 | 0.00 | 78 | 1010.0 |
| 20260505212104 | 30 | 77 | 1.6 | 4.8 | 0.00 | 0.00 | 0.00 | 78 | 1010.0 |
| 20260505211804 | 30 | 101 | 1.6 | 4.8 | 0.00 | 0.00 | 0.00 | 78 | 1010.0 |
| 20260505211504 | 30 | 126 | 1.6 | 4.8 | 0.00 | 0.00 | 0.00 | 78 | 1010.0 |
| 20260505211204 | 30 | 122 | 1.6 | 4.8 | 0.00 | 0.00 | 0.00 | 78 | 1010.0 |
| 20260505210904 | 30 | 105 | 1.6 | 4.8 | 0.00 | 0.00 | 0.00 | 78 | 1010.0 |
| 20260505210604 | 30 | 90 | 1.6 | 4.8 | 0.00 | 0.00 | 0.00 | 78 | 1010.0 |
| 20260505210304 | 30 | 65 | 1.6 | 3.2 | 0.00 | 0.00 | 0.00 | 78 | 1010.0 |
| 20260505210004 | 30 | 53 | 1.6 | 3.2 | 0.00 | 0.00 | 0.00 | 78 | 1010.0 |
| 20260505205704 | 30 | 88 | 1.6 | 4.8 | 0.00 | 0.00 | 0.00 | 78 | 1010.0 |
| 20260505205404 | 30 | 101 | 1.6 | 4.8 | 0.00 | 0.00 | 0.00 | 78 | 1010.0 |
| 20260505205104 | 30 | 124 | 1.6 | 4.8 | 0.00 | 0.00 | 0.00 | 78 | 1010.0 |
| 20260505204804 | 30 | 139 | 1.6 | 4.8 | 0.00 | 0.00 | 0.00 | 77 | 1010.0 |
| 20260505204504 | 30 | 149 | 1.6 | 4.8 | 0.00 | 0.00 | 0.00 | 77 | 1010.0 |
| 20260505204204 | 30 | 144 | 1.6 | 4.8 | 0.00 | 0.00 | 0.00 | 77 | 1010.0 |
| 20260505203904 | 30 | 135 | 1.6 | 4.8 | 0.00 | 0.00 | 0.00 | 78 | 1010.0 |
| 20260505203604 | 30 | 114 | 1.6 | 6.4 | 0.00 | 0.00 | 0.00 | 78 | 1010.0 |
| 20260505203304 | 30 | 76 | 1.6 | 6.4 | 0.00 | 0.00 | 0.00 | 78 | 1010.0 |
| 20260505203004 | 30 | 75 | 1.6 | 6.4 | 0.00 | 0.00 | 0.00 | 77 | 1010.0 |
| 20260505202704 | 30 | 63 | 1.6 | 6.4 | 0.00 | 0.00 | 0.00 | 77 | 1010.0 |
| 20260505202404 | 30 | 124 | 1.6 | 3.2 | 0.00 | 0.00 | 0.00 | 77 | 1010.0 |
| 20260505202104 | 30 | 147 | 1.6 | 4.8 | 0.00 | 0.00 | 0.00 | 77 | 1010.0 |
| 20260505201804 | 30 | 160 | 1.6 | 4.8 | 0.00 | 0.00 | 0.00 | 77 | 1010.0 |
| 20260505201504 | 30 | 151 | 1.6 | 4.8 | 0.00 | 0.00 | 0.00 | 77 | 1010.0 |
| 20260505201204 | 30 | 159 | 1.6 | 4.8 | 0.00 | 0.00 | 0.00 | 77 | 1010.0 |
| 20260505200904 | 30 | 165 | 1.6 | 4.8 | 0.00 | 0.00 | 0.00 | 78 | 1010.0 |
| 20260505200604 | 30 | 147 | 1.6 | 4.8 | 0.00 | 0.00 | 0.00 | 78 | 1010.0 |
| 20260505200304 | 30 | 126 | 1.6 | 4.8 | 0.00 | 0.00 | 0.00 | 78 | 1010.0 |
| 20260505200004 | 30 | 100 | 1.6 | 4.8 | 0.00 | 0.00 | 0.00 | 77 | 1010.0 |
| 20260505195704 | 30 | 64 | 1.6 | 6.4 | 0.00 | 0.00 | 0.00 | 78 | 1010.0 |
| 20260505195404 | 30 | 41 | 3.2 | 6.4 | 0.00 | 0.00 | 0.00 | 78 | 1010.0 |
| 20260505195104 | 30 | 31 | 3.2 | 6.4 | 0.00 | 0.00 | 0.00 | 78 | 1010.0 |
| 20260505194804 | 30 | 46 | 1.6 | 6.4 | 0.00 | 0.00 | 0.00 | 78 | 1010.0 |
| 20260505194525 | 30 | 75 | 1.6 | 4.8 | 0.00 | 0.00 | 0.00 | 78 | 1010.0 |
| 20260505194204 | 30 | 109 | 1.6 | 6.4 | 0.00 | 0.00 | 0.00 | 78 | 1010.0 |
| 20260505193904 | 30 | 134 | 3.2 | 6.4 | 0.00 | 0.00 | 0.00 | 78 | 1010.0 |
| 20260505193604 | 30 | 140 | 3.2 | 6.4 | 0.00 | 0.00 | 0.00 | 78 | 1010.0 |
| 20260505193304 | 30 | 153 | 3.2 | 6.4 | 0.00 | 0.00 | 0.00 | 78 | 1010.0 |
| 20260505193004 | 30 | 141 | 1.6 | 4.8 | 0.00 | 0.00 | 0.00 | 78 | 1010.0 |
| 20260505192704 | 30 | 140 | 3.2 | 4.8 | 0.00 | 0.00 | 0.00 | 78 | 1010.0 |
| 20260505192404 | 30 | 142 | 1.6 | 4.8 | 0.00 | 0.00 | 0.00 | 78 | 1010.0 |
| 20260505192125 | 30 | 156 | 1.6 | 4.8 | 0.00 | 0.00 | 0.00 | 78 | 1010.0 |
| 20260505191804 | 30 | 153 | 1.6 | 6.4 | 0.00 | 0.00 | 0.00 | 78 | 1010.0 |
| 20260505191525 | 30 | 125 | 3.2 | 6.4 | 0.00 | 0.00 | 0.00 | 78 | 1010.0 |
| 20260505191204 | 30 | 40 | 3.2 | 6.4 | 0.00 | 0.00 | 0.00 | 78 | 1010.0 |
| 20260505190904 | 30 | 44 | 1.6 | 6.4 | 0.00 | 0.00 | 0.00 | 78 | 1010.0 |
| 20260505190604 | 30 | 88 | 1.6 | 6.4 | 0.00 | 0.03 | 0.00 | 78 | 1010.0 |
| 20260505190304 | 30 | 113 | 0.0 | 6.4 | 0.00 | 0.05 | 0.00 | 78 | 1010.0 |
| 20260505190004 | 31 | 113 | 0.0 | 3.2 | 0.00 | 0.18 | 0.00 | 78 | 1010.0 |
| 20260505185704 | 31 | 113 | 0.0 | 3.2 | 0.00 | 0.38 | 0.00 | 78 | 1010.0 |
| 20260505185404 | 31 | 120 | 0.0 | 3.2 | 0.00 | 0.51 | 0.00 | 78 | 1010.0 |
| 20260505185104 | 31 | 122 | 0.0 | 1.6 | 0.00 | 0.56 | 0.00 | 78 | 1010.0 |
| 20260505184805 | 31 | 122 | 0.0 | 1.6 | 0.00 | 0.56 | 0.00 | 78 | 1010.0 |
| 20260505184504 | 31 | 157 | 0.0 | 1.6 | 0.00 | 0.56 | 0.00 | 78 | 1010.0 |
| 20260505184204 | 31 | 155 | 0.0 | 1.6 | 0.00 | 0.56 | 0.00 | 78 | 1010.0 |
| 20260505183904 | 31 | 141 | 0.0 | 1.6 | 0.00 | 0.56 | 0.00 | 78 | 1010.0 |
| 20260505183604 | 31 | 133 | 0.0 | 1.6 | 0.00 | 0.56 | 0.00 | 78 | 1010.0 |
| 20260505183304 | 31 | 119 | 0.0 | 1.6 | 0.00 | 0.56 | 0.00 | 77 | 1010.0 |
| 20260505183005 | 31 | 114 | 0.0 | 1.6 | 0.00 | 0.56 | 0.00 | 77 | 1010.0 |
| 20260505182704 | 31 | 108 | 0.0 | 1.6 | 0.00 | 0.56 | 0.56 | 77 | 1010.0 |
| 20260505182404 | 31 | 95 | 0.0 | 1.6 | 0.00 | 0.56 | 0.56 | 77 | 1010.0 |
| 20260505182104 | 31 | 122 | 0.0 | 1.6 | 0.00 | 0.56 | 0.56 | 77 | 1010.0 |
| 20260505181804 | 31 | 132 | 0.0 | 1.6 | 0.00 | 0.56 | 0.56 | 77 | 1010.0 |
| 20260505181504 | 31 | 136 | 0.0 | 3.2 | 0.00 | 0.56 | 0.56 | 77 | 1010.0 |
| 20260505181204 | 31 | 140 | 0.0 | 3.2 | 0.00 | 0.56 | 0.56 | 77 | 1010.0 |
| 20260505180925 | 31 | 151 | 0.0 | 3.2 | 0.00 | 0.56 | 0.56 | 77 | 1010.0 |
| 20260505180604 | 31 | 154 | 0.0 | 3.2 | 0.00 | 0.56 | 0.56 | 77 | 1010.0 |
| 20260505180325 | 31 | 156 | 0.0 | 3.2 | 0.00 | 0.56 | 0.56 | 77 | 1010.0 |
| 20260505180025 | 31 | 149 | 0.0 | 3.2 | 0.00 | 0.56 | 0.56 | 77 | 1010.0 |
| 20260505175704 | 31 | 136 | 0.0 | 3.2 | 0.00 | 0.56 | 0.56 | 77 | 1010.0 |
| 20260505175425 | 31 | 132 | 0.0 | 1.6 | 0.00 | 0.56 | 0.56 | 77 | 1010.0 |
| 20260505175125 | 31 | 132 | 0.0 | 1.6 | 0.00 | 0.56 | 0.56 | 77 | 1010.0 |
| 20260505174804 | 31 | 135 | 0.0 | 1.6 | 0.00 | 0.56 | 0.56 | 77 | 1010.0 |
| 20260505174504 | 31 | 131 | 0.0 | 1.6 | 0.00 | 0.56 | 0.56 | 77 | 1010.0 |
| 20260505174204 | 31 | 131 | 0.0 | 1.6 | 0.00 | 0.56 | 0.56 | 77 | 1010.0 |
| 20260505173904 | 31 | 127 | 0.0 | 1.6 | 0.00 | 0.56 | 0.56 | 77 | 1010.0 |
| 20260505173625 | 31 | 119 | 0.0 | 1.6 | 0.00 | 0.56 | 0.56 | 77 | 1010.0 |
| 20260505173304 | 31 | 121 | 0.0 | 1.6 | 0.00 | 0.56 | 0.56 | 77 | 1010.0 |
| 20260505173004 | 31 | 121 | 0.0 | 1.6 | 0.00 | 0.56 | 0.56 | 77 | 1010.0 |
| 20260505172704 | 31 | 121 | 0.0 | 1.6 | 0.00 | 0.56 | 0.56 | 77 | 1010.0 |
| 20260505172404 | 31 | 125 | 0.0 | 1.6 | 0.00 | 0.56 | 0.56 | 77 | 1010.0 |
| 20260505172104 | 31 | 123 | 0.0 | 1.6 | 0.00 | 0.56 | 0.56 | 77 | 1010.0 |
| 20260505171804 | 31 | 0 | 0.0 | 0.0 | 0.00 | 0.56 | 0.56 | 77 | 1010.0 |
| 20260505171504 | 31 | 0 | 0.0 | 0.0 | 0.00 | 0.56 | 0.56 | 77 | 1010.0 |
| 20260505171204 | 31 | 0 | 0.0 | 0.0 | 0.00 | 0.56 | 0.56 | 77 | 1010.0 |
| 20260505170925 | 31 | 0 | 0.0 | 1.6 | 0.00 | 0.56 | 0.56 | 77 | 1010.0 |
| 20260505170604 | 31 | 100 | 0.0 | 1.6 | 0.00 | 0.56 | 0.56 | 77 | 1010.0 |
| 20260505170304 | 31 | 109 | 0.0 | 1.6 | 0.00 | 0.56 | 0.56 | 77 | 1010.0 |
| 20260505170004 | 31 | 110 | 0.0 | 1.6 | 0.00 | 0.56 | 0.56 | 77 | 1010.0 |
| 20260505165704 | 31 | 116 | 0.0 | 1.6 | 0.00 | 0.56 | 0.56 | 77 | 1010.0 |
| 20260505165425 | 31 | 115 | 0.0 | 1.6 | 0.00 | 0.56 | 0.56 | 77 | 1010.0 |
| 20260505165104 | 31 | 118 | 0.0 | 1.6 | 0.00 | 0.56 | 0.56 | 77 | 1010.0 |
| 20260505164804 | 31 | 122 | 0.0 | 1.6 | 0.00 | 0.56 | 0.56 | 77 | 1010.0 |
| 20260505164504 | 31 | 123 | 0.0 | 1.6 | 0.00 | 0.56 | 0.56 | 77 | 1010.0 |
| 20260505164204 | 31 | 113 | 0.0 | 3.2 | 0.00 | 0.56 | 0.56 | 77 | 1010.0 |
| 20260505163925 | 31 | 121 | 0.0 | 3.2 | 0.00 | 0.56 | 0.56 | 77 | 1010.0 |
| 20260505163604 | 31 | 121 | 0.0 | 3.2 | 0.00 | 0.56 | 0.56 | 77 | 1010.0 |
| 20260505163304 | 31 | 125 | 0.0 | 3.2 | 0.00 | 0.56 | 0.56 | 77 | 1010.0 |
| 20260505163004 | 31 | 132 | 0.0 | 1.6 | 0.00 | 0.56 | 0.56 | 77 | 1010.0 |
| 20260505162704 | 31 | 114 | 0.0 | 1.6 | 0.00 | 0.56 | 0.56 | 77 | 1010.0 |
| 20260505162425 | 31 | 99 | 0.0 | 1.6 | 0.00 | 0.56 | 0.56 | 77 | 1010.0 |
| 20260505162104 | 31 | 99 | 0.0 | 1.6 | 0.00 | 0.56 | 0.56 | 77 | 1010.0 |
| 20260505161825 | 31 | 88 | 0.0 | 1.6 | 0.00 | 0.56 | 0.56 | 77 | 1010.0 |
| 20260505161504 | 31 | 131 | 0.0 | 1.6 | 0.00 | 0.56 | 0.56 | 77 | 1010.0 |
| 20260505161204 | 31 | 120 | 0.0 | 1.6 | 0.00 | 0.56 | 0.56 | 77 | 1010.0 |
| 20260505160904 | 31 | 114 | 0.0 | 3.2 | 0.00 | 0.56 | 0.56 | 77 | 1010.0 |
| 20260505160604 | 31 | 119 | 0.0 | 3.2 | 0.00 | 0.56 | 0.56 | 77 | 1010.0 |
| 20260505160304 | 31 | 121 | 0.0 | 3.2 | 0.00 | 0.56 | 0.56 | 77 | 1010.0 |
| 20260505153304 | 31 | 104 | 0.0 | 1.6 | 0.00 | 0.56 | 0.56 | 76 | 1010.0 |
| 20260505153004 | 31 | 104 | 0.0 | 1.6 | 0.00 | 0.56 | 0.56 | 76 | 1010.0 |
| 20260505152704 | 31 | 104 | 0.0 | 1.6 | 0.00 | 0.56 | 0.56 | 76 | 1010.0 |
| 20260505152404 | 31 | 0 | 0.0 | 0.0 | 0.00 | 0.56 | 0.56 | 76 | 1010.0 |
| 20260505152104 | 31 | 129 | 0.0 | 1.6 | 0.00 | 0.56 | 0.56 | 76 | 1010.0 |
| 20260505151825 | 31 | 131 | 0.0 | 1.6 | 0.00 | 0.56 | 0.56 | 76 | 1010.0 |
| 20260505151504 | 31 | 131 | 0.0 | 1.6 | 0.00 | 0.56 | 0.56 | 76 | 1010.0 |
| 20260505151204 | 31 | 131 | 0.0 | 1.6 | 0.00 | 0.56 | 0.56 | 76 | 1010.0 |
| 20260505150904 | 31 | 103 | 0.0 | 1.6 | 0.00 | 0.56 | 0.56 | 76 | 1010.0 |
| 20260505150604 | 31 | 105 | 0.0 | 1.6 | 0.00 | 0.56 | 0.56 | 76 | 1010.0 |
| 20260505150304 | 31 | 111 | 0.0 | 1.6 | 0.00 | 0.56 | 0.56 | 76 | 1010.0 |
| 20260505140604 | 31 | 121 | 0.0 | 3.2 | 0.00 | 0.56 | 0.56 | 75 | 1010.0 |
| 20260505140305 | 31 | 98 | 0.0 | 1.6 | 0.00 | 0.56 | 0.56 | 75 | 1010.0 |
| 20260505124804 | 31 | 154 | 1.6 | 4.8 | 0.00 | 0.56 | 0.56 | 74 | 1010.0 |
| 20260505124504 | 31 | 163 | 0.0 | 3.2 | 0.00 | 0.56 | 0.56 | 73 | 1010.0 |
| 20260505124204 | 31 | 153 | 0.0 | 3.2 | 0.00 | 0.56 | 0.56 | 73 | 1010.0 |
| 20260505123904 | 32 | 126 | 0.0 | 3.2 | 0.00 | 0.56 | 0.56 | 73 | 1010.0 |
| 20260505123604 | 32 | 121 | 0.0 | 3.2 | 0.00 | 0.56 | 0.56 | 73 | 1010.0 |
| 20260505123304 | 32 | 122 | 1.6 | 4.8 | 0.00 | 0.56 | 0.56 | 73 | 1010.0 |
| 20260505123004 | 32 | 136 | 1.6 | 4.8 | 0.00 | 0.56 | 0.56 | 73 | 1010.0 |
| 20260505122704 | 32 | 128 | 1.6 | 4.8 | 0.00 | 0.56 | 0.56 | 72 | 1010.0 |
| 20260505122404 | 32 | 119 | 1.6 | 4.8 | 0.00 | 0.56 | 0.56 | 73 | 1010.0 |
| 20260505122104 | 32 | 102 | 1.6 | 4.8 | 0.00 | 0.56 | 0.56 | 73 | 1010.0 |
| 20260505121804 | 32 | 107 | 1.6 | 4.8 | 0.00 | 0.56 | 0.56 | 73 | 1010.0 |
| 20260505121504 | 32 | 103 | 1.6 | 4.8 | 0.00 | 0.56 | 0.56 | 73 | 1010.0 |
| 20260505121204 | 32 | 101 | 0.0 | 4.8 | 0.00 | 0.56 | 0.56 | 73 | 1010.0 |
| 20260505120904 | 32 | 81 | 0.0 | 4.8 | 0.00 | 0.56 | 0.56 | 72 | 1010.0 |
| 20260505120625 | 32 | 88 | 1.6 | 6.4 | 0.00 | 0.56 | 0.56 | 73 | 1010.0 |
| 20260505120304 | 32 | 98 | 1.6 | 6.4 | 0.00 | 0.56 | 0.56 | 73 | 1010.0 |
| 20260505120005 | 32 | 104 | 1.6 | 6.4 | 0.00 | 0.56 | 0.56 | 73 | 1010.0 |
| 20260505115704 | 32 | 110 | 1.6 | 6.4 | 0.00 | 0.56 | 0.56 | 73 | 1010.0 |
| 20260505115425 | 32 | 121 | 1.6 | 6.4 | 0.00 | 0.56 | 0.56 | 72 | 1010.0 |
| 20260505115104 | 32 | 110 | 1.6 | 6.4 | 0.00 | 0.56 | 0.56 | 72 | 1010.0 |
| 20260505114804 | 32 | 104 | 1.6 | 6.4 | 0.00 | 0.56 | 0.56 | 72 | 1010.0 |
| 20260505114504 | 32 | 95 | 1.6 | 4.8 | 0.00 | 0.56 | 0.56 | 72 | 1010.0 |
| 20260505114204 | 32 | 114 | 1.6 | 6.4 | 0.00 | 0.56 | 0.56 | 72 | 1010.0 |
| 20260505113904 | 32 | 116 | 1.6 | 6.4 | 0.00 | 0.56 | 0.56 | 72 | 1010.0 |
| 20260505113604 | 32 | 114 | 1.6 | 6.4 | 0.00 | 0.56 | 0.56 | 72 | 1010.0 |
| 20260505113304 | 32 | 95 | 1.6 | 6.4 | 0.00 | 0.56 | 0.56 | 72 | 1010.0 |
| 20260505113004 | 32 | 91 | 1.6 | 4.8 | 0.00 | 0.56 | 0.56 | 72 | 1010.0 |
| 20260505112704 | 32 | 87 | 1.6 | 4.8 | 0.00 | 0.56 | 0.56 | 72 | 1010.0 |
| 20260505112425 | 32 | 88 | 1.6 | 4.8 | 0.00 | 0.56 | 0.56 | 72 | 1010.0 |
| 20260505112104 | 32 | 104 | 1.6 | 4.8 | 0.00 | 0.56 | 0.56 | 72 | 1010.0 |
| 20260505111804 | 32 | 104 | 3.2 | 4.8 | 0.00 | 0.56 | 0.56 | 72 | 1010.0 |
| 20260505111525 | 32 | 100 | 3.2 | 4.8 | 0.00 | 0.56 | 0.56 | 72 | 1010.0 |
| 20260505111204 | 32 | 111 | 3.2 | 6.4 | 0.00 | 0.56 | 0.56 | 72 | 1010.0 |
| 20260505110904 | 32 | 118 | 3.2 | 6.4 | 0.00 | 0.56 | 0.56 | 72 | 1010.0 |
| 20260505110604 | 32 | 101 | 3.2 | 6.4 | 0.00 | 0.56 | 0.56 | 72 | 1010.0 |
| 20260505110325 | 32 | 110 | 3.2 | 6.4 | 0.00 | 0.56 | 0.56 | 72 | 1010.0 |
| 20260505102104 | 32 | 133 | 1.6 | 8.0 | 0.00 | 0.56 | 0.56 | 72 | 1010.0 |
| 20260505101804 | 32 | 142 | 3.2 | 8.0 | 0.00 | 0.56 | 0.56 | 71 | 1010.0 |
| 20260505101504 | 32 | 132 | 3.2 | 8.0 | 0.00 | 0.56 | 0.56 | 71 | 1010.0 |
| 20260505101204 | 32 | 139 | 3.2 | 8.0 | 0.00 | 0.56 | 0.56 | 71 | 1010.0 |
| 20260505100904 | 32 | 140 | 3.2 | 8.0 | 0.00 | 0.56 | 0.56 | 71 | 1010.0 |
| 20260505100604 | 32 | 131 | 1.6 | 6.4 | 0.00 | 0.56 | 0.56 | 71 | 1010.0 |
| 20260505100304 | 32 | 123 | 3.2 | 6.4 | 0.00 | 0.56 | 0.56 | 71 | 1010.0 |
| 20260505100005 | 32 | 116 | 3.2 | 8.0 | 0.00 | 0.56 | 0.56 | 71 | 1010.0 |
| 20260505095704 | 32 | 119 | 3.2 | 8.0 | 0.00 | 0.56 | 0.56 | 71 | 1010.0 |
| 20260505095404 | 32 | 128 | 3.2 | 8.0 | 0.00 | 0.56 | 0.56 | 71 | 1010.0 |
| 20260505095104 | 32 | 109 | 1.6 | 8.0 | 0.00 | 0.56 | 0.56 | 71 | 1010.0 |
| 20260505094804 | 32 | 88 | 1.6 | 6.4 | 0.00 | 0.56 | 0.56 | 70 | 1010.0 |
| 20260505094504 | 32 | 98 | 1.6 | 6.4 | 0.00 | 0.56 | 0.56 | 70 | 1010.0 |
| 20260505094204 | 32 | 87 | 1.6 | 8.0 | 0.00 | 0.56 | 0.56 | 70 | 1010.0 |
| 20260505093926 | 32 | 77 | 1.6 | 8.0 | 0.00 | 0.56 | 0.56 | 70 | 1010.0 |
| 20260505093625 | 32 | 78 | 3.2 | 8.0 | 0.00 | 0.56 | 0.56 | 70 | 1010.0 |
| 20260505093304 | 32 | 86 | 3.2 | 8.0 | 0.00 | 0.56 | 0.56 | 70 | 1010.0 |
| 20260505093004 | 32 | 114 | 4.8 | 6.4 | 0.00 | 0.56 | 0.56 | 70 | 1010.0 |
| 20260505092705 | 32 | 123 | 3.2 | 6.4 | 0.00 | 0.56 | 0.56 | 70 | 1010.0 |
| 20260505092404 | 32 | 121 | 3.2 | 6.4 | 0.00 | 0.56 | 0.56 | 70 | 1010.0 |
| 20260505092104 | 32 | 110 | 3.2 | 9.7 | 0.00 | 0.56 | 0.56 | 70 | 1010.0 |
| 20260505091825 | 32 | 135 | 1.6 | 9.7 | 0.00 | 0.56 | 0.56 | 70 | 1010.0 |
| 20260505091504 | 32 | 148 | 3.2 | 9.7 | 0.00 | 0.56 | 0.56 | 71 | 1010.0 |
| 20260505091204 | 32 | 160 | 3.2 | 9.7 | 0.00 | 0.56 | 0.56 | 70 | 1010.0 |
| 20260505090904 | 32 | 142 | 3.2 | 8.0 | 0.00 | 0.56 | 0.56 | 71 | 1010.0 |
| 20260505090625 | 32 | 116 | 3.2 | 8.0 | 0.00 | 0.56 | 0.56 | 71 | 1010.0 |
| 20260505090304 | 32 | 111 | 3.2 | 8.0 | 0.00 | 0.56 | 0.56 | 71 | 1010.0 |
| 20260505090004 | 32 | 110 | 3.2 | 8.0 | 0.00 | 0.56 | 0.56 | 71 | 1010.0 |
| 20260505085704 | 32 | 121 | 3.2 | 8.0 | 0.00 | 0.56 | 0.56 | 71 | 1010.0 |
| 20260505085405 | 32 | 142 | 3.2 | 6.4 | 0.00 | 0.56 | 0.56 | 71 | 1010.0 |
| 20260505085104 | 32 | 121 | 3.2 | 6.4 | 0.00 | 0.56 | 0.56 | 72 | 1010.0 |
| 20260505084825 | 32 | 122 | 3.2 | 6.4 | 0.00 | 0.56 | 0.56 | 72 | 1010.0 |
| 20260505084504 | 32 | 104 | 3.2 | 6.4 | 0.00 | 0.56 | 0.56 | 72 | 1010.0 |
| 20260505084225 | 32 | 106 | 3.2 | 8.0 | 0.00 | 0.56 | 0.56 | 72 | 1010.0 |
| 20260505083904 | 32 | 97 | 3.2 | 8.0 | 0.00 | 0.56 | 0.56 | 72 | 1010.0 |
| 20260505083604 | 32 | 101 | 3.2 | 8.0 | 0.00 | 0.56 | 0.56 | 72 | 1010.0 |
| 20260505083304 | 32 | 107 | 3.2 | 8.0 | 0.00 | 0.56 | 0.56 | 72 | 1010.0 |
| 20260505083004 | 32 | 108 | 3.2 | 6.4 | 0.00 | 0.56 | 0.56 | 72 | 1010.0 |
| 20260505082704 | 32 | 113 | 3.2 | 8.0 | 0.00 | 0.56 | 0.56 | 72 | 1010.0 |
| 20260505082404 | 32 | 117 | 3.2 | 8.0 | 0.00 | 0.56 | 0.56 | 72 | 1010.0 |
| 20260505082104 | 32 | 118 | 3.2 | 8.0 | 0.00 | 0.56 | 0.56 | 72 | 1010.0 |
| 20260505081804 | 32 | 123 | 3.2 | 8.0 | 0.00 | 0.56 | 0.56 | 72 | 1010.0 |
| 20260505081525 | 32 | 132 | 3.2 | 8.0 | 0.00 | 0.56 | 0.56 | 73 | 1010.0 |
| 20260505081204 | 32 | 143 | 3.2 | 8.0 | 0.00 | 0.56 | 0.56 | 73 | 1010.0 |
| 20260505080904 | 32 | 124 | 3.2 | 6.4 | 0.00 | 0.56 | 0.56 | 73 | 1010.0 |
| 20260505080604 | 32 | 140 | 1.6 | 6.4 | 0.00 | 0.56 | 0.56 | 73 | 1010.0 |
| 20260505080304 | 32 | 133 | 3.2 | 6.4 | 0.00 | 0.56 | 0.56 | 73 | 1010.0 |
| 20260505080004 | 32 | 133 | 1.6 | 6.4 | 0.00 | 0.56 | 0.56 | 73 | 1010.0 |
| 20260505075704 | 32 | 111 | 1.6 | 6.4 | 0.00 | 0.56 | 0.56 | 73 | 1010.0 |
| 20260505075425 | 32 | 120 | 1.6 | 6.4 | 0.00 | 0.56 | 0.56 | 72 | 1010.0 |
| 20260505075104 | 32 | 119 | 1.6 | 6.4 | 0.00 | 0.56 | 0.56 | 72 | 1010.0 |
| 20260505074805 | 32 | 139 | 3.2 | 6.4 | 0.00 | 0.56 | 0.56 | 72 | 1010.0 |
| 20260505074504 | 32 | 121 | 3.2 | 6.4 | 0.00 | 0.56 | 0.56 | 72 | 1010.0 |
| 20260505074204 | 32 | 118 | 3.2 | 6.4 | 0.00 | 0.56 | 0.56 | 72 | 1010.0 |
| 20260505073904 | 32 | 118 | 3.2 | 6.4 | 0.00 | 0.56 | 0.56 | 72 | 1010.0 |
| 20260505073604 | 32 | 128 | 1.6 | 6.4 | 0.00 | 0.56 | 0.56 | 72 | 1010.0 |
| 20260505073305 | 32 | 146 | 1.6 | 6.4 | 0.00 | 0.56 | 0.56 | 72 | 1010.0 |
| 20260505073025 | 32 | 140 | 1.6 | 6.4 | 0.00 | 0.56 | 0.56 | 72 | 1010.0 |
| 20260505072704 | 32 | 148 | 3.2 | 6.4 | 0.00 | 0.56 | 0.56 | 72 | 1010.0 |
| 20260505072404 | 32 | 158 | 3.2 | 6.4 | 0.00 | 0.56 | 0.56 | 72 | 1010.0 |
| 20260505072104 | 32 | 150 | 3.2 | 6.4 | 0.00 | 0.56 | 0.56 | 72 | 1010.0 |
| 20260505071804 | 32 | 123 | 1.6 | 6.4 | 0.00 | 0.56 | 0.56 | 72 | 1010.0 |
| 20260505071505 | 32 | 113 | 1.6 | 9.7 | 0.00 | 0.56 | 0.56 | 73 | 1010.0 |
| 20260505071204 | 32 | 97 | 3.2 | 9.7 | 0.00 | 0.56 | 0.56 | 72 | 1010.0 |
| 20260505070925 | 32 | 116 | 1.6 | 9.7 | 0.00 | 0.56 | 0.56 | 73 | 1010.0 |